Tiaret, Algeria

9:53 PM CET on September 19, 2017 (GMT +0100)
Tiaret

Weather History for DAOB - October, 2012

Change the Weather History Date:

Thursday, October 11, 2012

  Actual Average Record
Temperature  
Mean Temperature 68 °F -  
Max Temperature 80 °F - - ()
Min Temperature 56 °F - - ()
Cooling Degree Days 3    
Growing Degree Days 18 (Base 50)    
Moisture  
Dew Point 47 °F    
Average Humidity 44    
Maximum Humidity 64    
Minimum Humidity 22    
Precipitation  
Precipitation 0.00 in - - ()
Sea Level Pressure  
Sea Level Pressure 30.06 in    
Wind  
Wind Speed 11 mph ()    
Max Wind Speed 21 mph    
Max Gust Speed -    
Visibility 7.2 miles    
Events      
T = Trace of Precipitation, MM = Missing Value Source: Averaged Metar Reports

Daily Weather History Graph

Daily Weather History Graph

Search for Another Location

Airport or City:

Trip Planner

Search our weather history database for the weather conditions in past years. The results will help you decide how hot, cold, wet, or windy it might be!

Date:

Astronomy

Oct. 11, 2012 Rise Set
Actual Time 6:57 AM CET 6:23 PM CET
Civil Twilight 6:31 AM CET 6:49 PM CET
Nautical Twilight 6:02 AM CET 7:18 PM CET
Astronomical Twilight 5:32 AM CET 7:48 PM CET
Moon 2:28 AM CET (10/11) 3:44 PM CET (10/11)
Length of Visible Light 12h 17m
Length of Day
11h 26m
Waning Crescent, 20% of the Moon is Illuminated
Oct 11
Waning Crescent
Oct 15
New
Oct 22
First Quarter
Oct 29
Full
Nov 7
Last Quarter

Hourly Weather History & Observations

Time (CET) Temp. Dew Point Humidity Pressure Visibility Wind Dir Wind Speed Gust Speed Precip Events Conditions
1:00 AM 62 °F 48 °F 49%  in 9 mi WSW 9.2 mph - -   Clear
1:00 AM 62.6 °F 48.2 °F 59% 30.09 in - WSW 9.2 mph - N/A   Clear
2:00 AM 60.8 °F 42.8 °F 52% 30.09 in - WSW 4.6 mph - N/A   Clear
3:00 AM 60.8 °F 44.6 °F 55% 30.09 in - SW 11.5 mph - N/A   Clear
4:00 AM 61 °F 46 °F 46%  in 9 mi West 13.8 mph - -   Clear
4:00 AM 60.8 °F 46.4 °F 59% 30.09 in - West 13.8 mph - N/A   Clear
5:00 AM 60.8 °F 44.6 °F 55% 30.09 in - West 11.5 mph - N/A   Clear
6:00 AM 59.0 °F 44.6 °F 59% 30.09 in - Calm Calm - N/A   Clear
7:00 AM 57 °F 42 °F 46%  in 9 mi SW 6.9 mph - -   Scattered Clouds
7:00 AM 57.2 °F 41.0 °F 55% 30.06 in 6.2 mi SW 6.9 mph - N/A   Partly Cloudy
8:00 AM 60.8 °F 41.0 °F 48% 30.06 in - SW 11.5 mph - N/A   Clear
9:00 AM 69.8 °F 42.8 °F 38% 30.06 in - WSW 6.9 mph - N/A   Clear
10:00 AM 73 °F 43 °F 23%  in 9 mi WSW 12.7 mph - -   Scattered Clouds
10:00 AM 73.4 °F 42.8 °F 33% 30.06 in 6.2 mi WSW 12.7 mph - N/A   Partly Cloudy
11:00 AM 77.0 °F 44.6 °F 32% 30.06 in 6.2 mi West 20.7 mph - N/A   Partly Cloudy
12:00 PM 77.0 °F 48.2 °F 36% 30.06 in 6.2 mi WNW 18.4 mph - N/A   Partly Cloudy
1:00 PM 79 °F 47 °F 22%  in 9 mi WNW 18.4 mph - -   Scattered Clouds
1:00 PM 78.8 °F 46.4 °F 32% 30.04 in 6.2 mi WNW 18.4 mph - N/A   Partly Cloudy
2:00 PM 78.8 °F 44.6 °F 30% 30.04 in 6.2 mi WNW 18.4 mph - N/A   Partly Cloudy
3:00 PM 78.8 °F 44.6 °F 30% 30.01 in 6.2 mi WNW 18.4 mph - N/A   Partly Cloudy
4:00 PM 80 °F 50 °F 24%  in 9 mi WNW 20.7 mph - -   Scattered Clouds
4:00 PM 80.6 °F 50.0 °F 34% 30.01 in 6.2 mi WNW 20.7 mph - N/A   Partly Cloudy
5:00 PM 77.0 °F 48.2 °F 36% 30.01 in 6.2 mi WNW 18.4 mph - N/A   Partly Cloudy
6:00 PM 73.4 °F 51.8 °F 47% 30.04 in 6.2 mi West 16.1 mph - N/A   Partly Cloudy
7:00 PM 71 °F 50 °F 37%  in 9 mi West 16.1 mph - -   Scattered Clouds
7:00 PM 71.6 °F 50.0 °F 46% 30.04 in 6.2 mi West 16.1 mph - N/A   Scattered Clouds
8:00 PM 69.8 °F 55.4 °F 60% 30.06 in 6.2 mi WNW 11.5 mph - N/A   Scattered Clouds
9:00 PM 68.0 °F 55.4 °F 64% 30.09 in 6.2 mi WNW 13.8 mph - N/A   Scattered Clouds
10:00 PM 67 °F 52 °F 47%  in 9 mi WNW 11.5 mph - -   Scattered Clouds
10:00 PM 66.2 °F 51.8 °F 60% 30.09 in 6.2 mi WNW 11.5 mph - N/A   Partly Cloudy
11:00 PM 64.4 °F 50.0 °F 59% 30.09 in 6.2 mi West 8.1 mph - N/A   Partly Cloudy